NAVSTAR 43 (USA 132) 1 24876U 97035A 24289.43597744 .00000090 00000-0 00000-0 0 9998 2 24876 55.7091 122.4291 0085142 54.6019 306.2719 2.00561381199724 NAVSTAR 46 (USA 145) 1 25933U 99055A 24289.53623797 -.00000049 00000-0 00000-0 0 9991 2 25933 51.9843 322.0134 0120222 156.7273 204.2163 2.00567099183355 NAVSTAR 47 (USA 150) 1 26360U 00025A 24289.81676216 -.00000061 00000-0 00000-0 0 9994 2 26360 54.7629 43.9738 0039618 218.9530 145.2796 2.00570137179052 NAVSTAR 48 (USA 151) 1 26407U 00040A 24289.78077340 -.00000012 00000-0 00000-0 0 9998 2 26407 55.0225 239.3859 0141608 296.3707 240.0518 2.00561759177722 NAVSTAR 49 (USA 154) 1 26605U 00071A 24289.57521021 .00000086 00000-0 00000-0 0 9999 2 26605 55.3166 119.0519 0156804 260.4197 56.6401 2.00567746175288 NAVSTAR 50 (USA 156) 1 26690U 01004A 24288.20108434 -.00000029 00000-0 00000-0 0 9996 2 26690 54.7200 55.1071 0001382 42.8153 124.5395 1.91588006171836 NAVSTAR 51 (USA 166) 1 27663U 03005A 24289.85519407 -.00000011 00000-0 00000-0 0 9999 2 27663 55.0599 239.1941 0139075 47.9404 322.4765 2.00567824159098 NAVSTAR 52 (USA 168) 1 27704U 03010A 24289.74841994 -.00000074 00000-0 00000-0 0 9997 2 27704 55.0707 348.9253 0255790 330.4319 178.3274 2.00567117157881 NAVSTAR 53 (USA 175) 1 28129U 03058A 24289.62539988 -.00000056 00000-0 00000-0 0 9995 2 28129 54.6078 46.4488 0066887 344.3035 15.4861 2.00557488152568 NAVSTAR 54 (USA 177) 1 28190U 04009A 24289.77934007 -.00000020 00000-0 00000-0 0 9998 2 28190 55.3513 300.2168 0098907 153.9297 314.6842 2.00555485150720 NAVSTAR 55 (USA 178) 1 28361U 04023A 24289.63237372 .00000077 00000-0 00000-0 0 9991 2 28361 54.4824 111.3833 0150095 284.3648 260.5798 2.00552434148818 NAVSTAR 56 (USA 180) 1 28474U 04045A 24289.75089911 -.00000074 00000-0 00000-0 0 9995 2 28474 55.4005 349.3852 0164884 295.5777 199.5631 2.00562323146203 NAVSTAR 57 (USA 183) 1 28874U 05038A 24289.77707617 -.00000018 00000-0 00000-0 0 9992 2 28874 55.3968 297.6821 0137457 286.0727 205.1634 2.00577137139614 NAVSTAR 58 (USA 190) 1 29486U 06042A 24289.47156428 .00000043 00000-0 00000-0 0 9990 2 29486 54.6754 175.5232 0104964 42.1330 128.7265 2.00573886132167 NAVSTAR 59 (USA 192) 1 29601U 06052A 24289.15333582 -.00000011 00000-0 00000-0 0 9999 2 29601 55.0943 238.2082 0085249 83.7011 277.2454 2.00574096131176 NAVSTAR 60 (USA 196) 1 32260U 07047A 24287.96485013 .00000076 00000-0 00000-0 0 9993 2 32260 53.6732 105.3281 0159318 78.0662 283.7736 2.00558427124553 NAVSTAR 61 (USA 199) 1 32384U 07062A 24289.52189177 -.00000016 00000-0 00000-0 0 9998 2 32384 55.5390 298.5728 0028017 157.9340 15.3037 2.00553717123282 NAVSTAR 62 (USA 201) 1 32711U 08012A 24289.87350213 .00000047 00000-0 00000-0 0 9990 2 32711 54.4497 174.2403 0189666 240.1539 118.0313 2.00571529121530 NAVSTAR 64 (USA 206) 1 35752U 09043A 24289.36007669 -.00000043 00000-0 00000-0 0 9998 2 35752 55.7743 51.5133 0055795 75.9540 286.8534 2.00562304111139 NAVSTAR 65 (USA 213) 1 36585U 10022A 24289.41860178 -.00000012 00000-0 00000-0 0 9996 2 36585 54.4084 233.1472 0116982 62.1730 100.1233 2.00557488105366 NAVSTAR 66 (USA 232) 1 37753U 11036A 24289.82573927 -.00000078 00000-0 00000-0 0 9990 2 37753 56.7529 355.6817 0128248 58.6946 102.6353 2.00569341 97050 NAVSTAR 67 (USA 239) 1 38833U 12053A 24289.05969056 .00000048 00000-0 00000-0 0 9993 2 38833 53.5182 168.5720 0159060 57.9409 303.6830 2.00560306 87207 NAVSTAR 68 (USA 242) 1 39166U 13023A 24289.42029074 -.00000013 00000-0 00000-0 0 9992 2 39166 55.0105 293.7290 0125250 44.9395 316.0937 2.00562317 83651 NAVSTAR 69 (USA 248) 1 39533U 14008A 24289.91312727 .00000046 00000-0 00000-0 0 9993 2 39533 53.5994 174.1522 0073141 220.9569 138.5754 2.00575241 77464 NAVSTAR 70 (USA 251) 1 39741U 14026A 24289.19981042 -.00000076 00000-0 00000-0 0 9990 2 39741 56.6973 355.2194 0033082 312.9087 46.8725 2.00559581 76300 NAVSTAR 71 (USA 256) 1 40105U 14045A 24289.78661099 .00000078 00000-0 00000-0 0 9990 2 40105 54.9864 112.7880 0029648 116.2696 244.0984 2.00574339 73852 NAVSTAR 72 (USA 258) 1 40294U 14068A 24289.66401364 -.00000038 00000-0 00000-0 0 9995 2 40294 56.5251 54.5479 0054881 65.7117 294.8523 2.00567402 72987 NAVSTAR 73 (USA 260) 1 40534U 15013A 24289.79444933 -.00000012 00000-0 00000-0 0 9998 2 40534 53.3060 229.4009 0092595 31.1958 329.3318 2.00558236 69609 NAVSTAR 74 (USA 262) 1 40730U 15033A 24289.95604748 -.00000018 00000-0 00000-0 0 9994 2 40730 54.4921 292.1208 0097090 19.9667 340.4294 2.00560735 67779 NAVSTAR 75 (USA 265) 1 41019U 15062A 24289.51791419 -.00000037 00000-0 00000-0 0 9992 2 41019 56.5042 54.4080 0099747 225.0457 134.1376 2.00562540 65607 NAVSTAR 76 (USA 266) 1 41328U 16007A 24289.59983600 .00000081 00000-0 00000+0 0 9995 2 41328 55.1775 113.6649 0081150 238.4393 120.8297 2.00555884 63653